Regional Weather Roundup
Issued by NWS Green Bay, WI

Home | Current Version | Previous Version | Graphics & Text | Print | Product List | Glossary Off
Versions: 1 2 3 4 5 6 7 8 9 10 11 12 13 14 15 16 17 18 19 20 21 22 23 24 25 26 27 28 29 30 31 32 33 34 35 36 37 38 39 40 41 42 43 44 45 46 47 48 49 50

000
ASUS43 KGRB 240911
RWRGRB

NORTH-CENTRAL AND NORTHEAST WISCONSIN REGIONAL WEATHER ROUNDUP
NATIONAL WEATHER SERVICE GREEN BAY WI
400 AM CDT FRI MAR 24 2017

WIZ005-009-010>012-018-019-241000-
NORTH CENTRAL WISCONSIN

CITY           SKY/WX    TMP DP  RH WIND       PRES   REMARKS
IRONWOOD       CLOUDY    33  31  92 CALM      29.90S FOG
MANITOWISH WTR DRIZZLE   32  32 100 CALM      29.87R
ARBOR VITAE    MIX PCPN  34  32  94 CALM      29.85S
EAGLE RIVER    MIX PCPN  32  32  99 CALM      29.86R
LAND O LAKES   MIX PCPN  33  32  98 CALM      29.86F
RHINELANDER    LGT RAIN  33  32  96 CALM      29.87R FOG
PHILLIPS       CLOUDY    34  33  97 CALM      29.86R
ANTIGO         CLOUDY    32  32 100 CALM      29.87S FOG
TOMAHAWK       CLOUDY    32  31  96 CALM      29.87S FOG
MERRILL        CLOUDY    33  33 100 CALM      29.89R FOG
$$

WIZ013-073-241000-
NORTHEAST WISCONSIN

CITY           SKY/WX    TMP DP  RH WIND       PRES   REMARKS
IRON MOUNTAIN  CLOUDY    32  28  85 CALM      29.86F FOG
MARINETTE        N/A    N/A N/A N/A MISG        N/A
OCONTO         CLOUDY    34  33  96 CALM      29.89F
$$

WIZ017-030-035>037-045-241000-
CENTRAL WISCONSIN

CITY           SKY/WX    TMP DP  RH WIND       PRES   REMARKS
MEDFORD        DRIZZLE   34  33  97 SE5       29.85F
WAUSAU         LGT RAIN  34  34 100 NE3       29.88R FOG
MOSINEE        TSTM      34  34 100 CALM      29.88S
MARSHFIELD     RAIN      36  35  96 CALM      29.86F FOG
WISC RAPIDS    LGT RAIN  38  38 100 N5        29.91R
STEVENS POINT  RAIN      34  34 100 CALM      29.90R
WAUPACA        CLOUDY    37  35  90 N3        29.90R FOG
SHAWANO        CLOUDY    36  33  91 N3        29.89F FOG
CLINTONVILLE   CLOUDY    34  32  93 CALM      29.91R
WAUTOMA        CLOUDY    38  37  97 NE5       29.88R
$$

WIZ038-039-048-051-241000-
FOX VALLEY

CITY           SKY/WX    TMP DP  RH WIND       PRES   REMARKS
NWS GREEN BAY  LGT RAIN  37  36  96 CALM      29.89F
APPLETON       CLOUDY    37  37 100 NW5       29.87S
OSHKOSH        CLOUDY    38  35  89 N3        29.87F FOG
FOND DU LAC    CLOUDY    38  34  85 N6        29.86F
$$

WIZ022-050-052-241000-
EAST CENTRAL WISCONSIN

CITY           SKY/WX    TMP DP  RH WIND       PRES   REMARKS
EPHRAIM        LGT RAIN  35  35  99 CALM      29.88F
WASHINGTON ISL RAIN      36  34  95 S5        29.89F
STURGEON BAY   LGT RAIN  36  35  96 CALM      29.90F FOG
MANITOWOC      CLOUDY    38  35  89 CALM      29.89F
SHEBOYGAN      CLOUDY    36  34  92 N3        29.88F FOG
$$

LMZ563-521-522-541>543-241000-
LAKESHORE

STATION/POSITION TIME  TEMP    WIND        PRES    VSBY  WAVE
                       AIR SEA DIR/SP/G                  HT/PER
                 (UTC) (F)     (DEG/KT/KT) (MB)    (MI)  (FT/S)
SHEBOYGAN LKSHOR 0900   38     170/  5/  5 1012.3S
KEWAUNEE LKSHORE 0848   36      50/  2/  3 1012.1F
NORTHPORT PIER   0840   36     150/  4/  4 1012.9F
CHAMBERS ISLAND  0840   35     120/  3/  4 1012.2F
MENOMINEE LKSHOR 0848   34     150/  6/  7 1011.7F
$$




USA.gov is the U.S. government's official web portal to all federal, state and local government web resources and services.